GFSNIL_sfc_dewp_000.txt.gz
Dewpoint
65 59 60 62 62 59 59 59 64 64 64 64 65 65 66 64 63 67 69 69 71 72
66 66 63 65 66 60 64 59 60 63 63 64 64 65 66 62 64 64 66 68 69 71
62 64 64 64 64 64 64 64 64 63 63 63 63 63 65 65 65 66 65 64 67 68
62 62 62 62 63 64 64 65 64 64 64 64 63 63 64 64 62 62 63 63 65 66
63 63 62 62 62 63 63 64 64 64 65 64 63 64 64 62 62 62 62 62 64 65
62 62 62 62 62 62 63 64 64 64 64 63 63 63 63 63 61 61 60 61 62 61
62 62 61 62 63 62 64 64 64 65 64 64 63 63 62 61 61 60 60 60 60 60
62 63 62 63 64 64 63 62 63 63 62 62 60 58 62 60 60 60 60 60 59 60
62 64 64 63 63 63 62 61 62 61 61 61 58 59 59 60 59 59 60 60 59 59
63 63 64 61 62 62 62 62 61 60 60 61 61 59 59 59 58 58 59 60 61 58
62 62 63 61 61 62 62 61 61 60 60 60 58 58 58 59 59 62 60 60 60 60
61 62 62 62 62 62 61 59 58 59 60 60 60 56 57 59 58 63 60 60 61 60
60 62 61 62 62 61 60 58 55 56 58 57 59 56 55 57 62 62 64 60 63 59
62 64 64 62 62 61 61 60 59 59 59 58 56 59 55 54 59 64 62 63 55 62

GFSNIL_sfc_dewp_003.txt.gz
Dewpoint
65 59 59 61 62 59 59 58 64 64 64 65 65 65 67 64 63 68 67 67 69 69
66 66 64 66 66 60 64 60 61 63 64 65 64 64 66 61 64 65 68 66 68 67
61 63 65 65 65 65 65 65 64 63 63 64 64 66 67 64 65 65 61 61 65 66
62 61 63 62 62 64 65 65 65 64 63 64 64 64 66 66 64 63 65 65 65 64
63 63 62 62 62 63 63 64 64 64 64 63 63 65 64 63 62 63 63 61 61 61
62 63 63 63 63 62 63 63 63 64 64 63 63 63 64 63 63 63 61 60 60 60
62 64 63 64 63 63 64 63 64 65 64 63 62 62 63 63 63 62 60 60 60 60
62 64 64 64 64 63 63 62 63 64 62 61 60 55 63 63 61 61 61 60 60 60
61 63 63 63 63 63 63 63 63 61 62 63 56 61 59 60 59 61 61 59 59 62
62 63 63 62 62 63 63 65 64 61 61 62 63 59 60 60 59 59 61 61 61 58
62 62 63 63 63 64 64 65 64 63 63 62 60 58 59 60 60 60 63 63 63 63
62 62 62 62 63 64 64 63 62 62 63 64 64 57 57 60 59 61 63 63 63 63
61 61 61 63 64 64 64 60 57 58 60 59 63 58 55 57 55 62 59 61 63 58
62 65 64 65 65 67 63 62 62 59 62 62 62 60 56 55 58 55 56 58 61 55

GFSNIL_sfc_dewp_006.txt.gz
Dewpoint
71 69 69 71 69 67 67 67 69 69 69 69 69 69 69 67 67 68 68 67 68 68
72 71 70 71 71 68 71 65 67 68 68 69 69 68 69 67 67 67 67 66 66 64
70 70 71 70 70 70 70 70 69 68 68 68 68 69 68 67 66 66 66 65 66 66
67 67 69 69 68 69 71 70 69 69 68 67 67 68 67 68 66 65 66 66 65 65
69 68 69 69 68 69 69 70 69 68 68 66 66 67 65 65 65 65 64 64 64 63
68 68 69 69 69 69 69 68 68 68 67 66 66 66 66 66 65 65 65 64 63 63
68 69 68 69 70 69 69 68 68 68 67 66 66 65 65 65 65 64 63 64 63 62
69 69 69 69 69 68 69 68 68 67 67 67 65 59 65 64 64 65 63 64 63 62
68 68 68 69 69 69 69 68 68 67 66 66 62 60 62 63 64 64 63 62 63 62
67 67 68 68 68 69 69 68 68 67 66 66 65 60 60 62 63 62 62 63 63 62
67 67 68 68 68 69 69 69 67 66 66 66 63 58 59 61 62 62 62 63 63 62
66 67 67 67 68 69 68 67 67 66 65 65 65 59 57 59 63 61 61 63 62 62
67 67 67 68 68 67 69 66 62 62 65 62 66 57 57 59 59 59 60 62 62 59
68 69 69 70 69 69 65 65 65 65 64 64 63 61 58 56 60 59 60 57 57 60

GFSNIL_sfc_dewp_009.txt.gz
Dewpoint
61 61 63 66 64 61 61 63 64 63 64 63 64 64 64 63 63 63 63 61 62 62
63 63 65 64 63 62 65 62 63 63 63 64 65 65 63 63 63 62 62 62 62 61
66 65 64 64 63 63 62 64 63 63 63 63 63 64 63 62 62 61 62 62 61 61
67 65 65 64 63 63 64 65 64 64 63 63 63 63 63 62 62 62 62 62 61 61
61 62 64 63 63 63 63 63 64 63 64 63 63 63 62 61 61 61 61 61 61 60
62 61 62 63 63 63 63 62 62 63 62 62 62 62 62 62 62 61 61 61 61 59
63 63 63 64 64 64 63 63 64 64 63 63 63 62 63 63 61 61 60 62 61 59
63 64 64 64 65 64 63 64 63 63 63 62 63 62 58 60 62 62 60 61 61 61
64 64 65 64 65 63 63 63 64 62 61 61 62 59 59 60 59 60 59 59 60 60
63 63 64 64 65 65 64 63 61 63 62 61 62 61 60 61 59 58 59 59 59 59
63 63 64 64 64 64 63 61 62 62 61 62 62 59 58 60 58 59 60 60 59 59
63 63 64 65 64 64 63 63 63 62 61 61 60 57 57 58 57 58 57 59 59 59
64 64 64 65 65 63 63 62 62 58 61 59 58 57 56 57 56 53 56 58 58 58
65 65 65 65 65 63 63 58 59 60 60 60 59 58 56 55 55 57 57 55 53 55

GFSNIL_sfc_dewp_015.txt.gz
Dewpoint
59 59 59 58 61 60 61 62 63 62 63 61 62 62 62 62 61 61 61 60 60 60
59 59 59 61 62 59 59 62 63 62 62 62 62 63 62 61 61 61 61 61 61 59
60 61 62 63 61 61 62 62 62 62 62 61 62 62 61 61 61 60 60 61 60 60
61 61 63 62 62 62 61 61 61 62 62 62 62 61 61 61 61 61 60 60 60 60
63 62 62 62 62 61 61 62 62 63 63 62 62 62 61 60 61 61 60 60 60 60
63 63 62 62 62 61 61 61 63 62 61 61 61 61 61 61 60 60 60 60 60 59
63 64 63 63 62 61 61 61 61 61 60 60 61 61 61 61 61 61 61 60 60 59
64 65 63 63 62 61 61 61 61 61 61 62 62 62 61 61 61 59 59 59 59 59
65 64 61 61 62 61 61 61 62 61 61 61 62 60 61 62 57 57 57 57 57 57
65 65 64 62 62 61 61 61 61 61 62 61 61 59 60 62 60 58 57 56 56 57
65 64 63 62 61 61 62 61 61 61 61 61 61 59 58 61 59 57 56 56 56 55
65 63 63 61 62 61 62 62 62 61 60 61 61 58 57 57 57 55 54 54 54 55
64 63 63 62 62 62 62 61 62 61 61 60 61 58 56 56 55 53 53 54 54 55
63 63 63 63 63 63 62 60 60 60 61 61 61 59 55 54 54 54 54 53 51 52

GFSNIL_sfc_dewp_021.txt.gz
Dewpoint
74 72 71 71 67 65 64 63 68 69 69 69 67 67 67 65 65 67 65 67 66 62
74 73 71 72 69 65 67 64 67 68 68 67 66 67 68 64 66 67 67 66 67 64
73 73 72 69 66 67 66 67 68 68 67 67 67 67 68 65 66 66 65 64 66 66
71 71 66 67 65 65 66 67 67 67 67 67 67 67 67 67 66 66 66 66 66 66
70 65 67 65 65 66 66 66 66 67 67 66 66 67 67 66 64 65 65 64 65 65
66 67 66 65 66 65 65 65 65 66 67 66 66 66 67 66 65 65 64 64 65 64
66 68 67 66 65 64 65 64 65 66 66 66 67 66 65 65 65 65 64 65 65 65
67 68 68 68 67 63 64 63 65 65 65 65 65 63 65 65 65 66 65 65 65 64
67 68 67 67 67 66 64 65 65 65 64 65 63 60 61 64 65 66 65 64 64 64
68 68 67 65 66 66 66 65 64 65 65 65 65 60 60 63 65 65 65 65 65 64
68 67 67 66 65 67 67 64 64 65 66 65 65 60 59 61 65 66 65 66 65 64
68 67 66 65 65 67 67 65 64 65 66 66 67 58 58 60 64 63 63 64 63 61
68 67 66 65 66 67 67 66 64 64 66 64 66 58 57 60 61 61 62 62 60 57
67 67 66 67 67 67 67 66 66 65 67 65 65 62 56 56 60 61 60 59 57 57

GFSNIL_sfc_dewp_024.txt.gz
Dewpoint
76 72 72 73 69 65 61 63 69 69 69 69 69 68 68 64 64 65 64 65 65 60
76 75 73 74 74 68 69 63 67 69 69 69 69 68 68 64 65 65 65 64 65 63
74 75 75 75 74 71 70 68 68 68 68 68 68 67 69 65 65 66 62 61 64 65
73 73 74 73 73 72 70 70 70 69 68 68 67 67 68 67 64 65 66 65 65 65
74 74 74 73 72 70 69 69 69 69 69 68 67 68 67 65 63 64 64 64 65 64
73 73 72 72 70 68 67 67 67 69 68 67 67 68 67 66 65 64 64 64 64 63
73 73 72 72 69 66 67 67 67 66 68 68 68 67 65 66 66 65 64 65 65 64
75 72 72 73 71 69 68 66 66 67 67 67 66 62 66 65 65 65 65 65 64 64
73 72 72 72 71 69 69 69 68 67 66 66 62 60 62 65 64 65 65 65 65 65
73 72 71 71 70 70 67 65 67 67 67 65 65 60 61 63 64 64 66 67 68 66
72 71 71 71 70 69 65 67 67 67 67 67 65 60 59 62 65 67 67 65 64 65
71 71 70 70 70 68 67 66 67 67 67 68 67 59 59 61 65 66 64 64 64 64
71 71 70 70 70 69 67 66 65 66 68 64 67 57 57 61 65 64 64 63 63 60
71 71 71 70 69 68 67 67 67 66 67 67 67 66 56 57 64 60 60 63 61 61

GFSNIL_sfc_dewp_027.txt.gz
Dewpoint
79 73 72 74 68 65 61 62 73 72 72 70 71 70 69 64 64 66 64 65 65 60
79 78 72 75 76 69 72 63 70 71 70 70 69 68 69 65 65 66 66 65 66 63
77 78 78 77 77 75 73 70 71 70 70 70 70 70 71 68 68 67 63 61 66 65
76 76 77 75 76 76 76 73 72 72 71 71 69 70 71 70 67 66 67 66 66 67
77 76 76 76 76 76 75 74 72 72 71 69 69 69 69 68 64 65 65 66 67 65
76 76 76 76 76 76 75 73 71 71 71 69 69 69 69 68 67 66 64 64 64 63
76 77 76 77 77 76 74 72 71 71 70 69 69 67 68 66 66 65 65 64 65 64
77 78 78 77 76 75 74 71 71 70 67 67 64 63 68 66 65 67 65 65 64 66
77 78 77 76 76 74 72 71 70 68 65 66 64 62 63 66 64 67 67 66 67 67
77 77 76 75 75 74 72 70 69 68 67 67 68 60 61 63 65 65 67 67 68 67
76 76 75 74 75 74 72 70 69 68 69 68 68 60 60 62 65 67 67 67 67 67
75 75 74 72 73 73 72 70 69 68 69 69 69 59 59 62 64 64 67 67 67 65
75 74 73 72 73 73 72 70 69 68 69 65 69 60 58 61 70 68 63 67 67 61
73 73 73 73 73 71 69 68 68 68 67 68 68 68 56 56 69 65 66 62 63 62

GFSNIL_sfc_dewp_030.txt.gz
Dewpoint
76 76 75 75 73 70 71 68 73 73 74 74 72 72 71 69 68 69 68 67 69 66
78 76 74 76 75 74 73 74 72 72 74 73 72 71 72 69 68 69 70 69 69 68
77 77 76 75 76 73 76 74 73 73 72 72 72 72 72 69 71 70 69 68 68 68
77 77 76 75 74 75 75 74 73 72 71 71 71 71 71 70 70 69 69 67 67 66
77 77 76 75 76 76 75 75 72 72 72 71 71 71 70 69 67 68 68 68 69 67
76 76 76 76 74 76 75 75 72 72 71 71 70 70 70 69 68 68 66 68 68 67
76 76 75 76 76 76 76 75 73 72 71 71 70 70 69 69 69 68 67 67 67 67
76 76 76 76 76 76 76 75 74 72 71 70 68 68 69 69 68 68 67 67 67 67
75 76 77 76 76 76 76 75 73 71 70 69 65 63 64 68 67 67 67 66 68 68
75 76 76 76 76 76 76 74 72 71 69 68 68 61 62 65 67 67 66 67 68 67
76 76 77 76 76 76 75 73 71 70 69 68 69 60 61 63 65 66 68 67 68 68
76 77 76 76 76 75 74 71 70 69 69 69 69 60 59 61 65 65 66 67 68 68
77 77 76 76 75 76 75 71 69 68 69 66 69 59 57 60 66 64 66 68 68 63
77 77 76 75 74 74 73 73 70 69 68 69 67 67 56 56 66 68 68 67 67 67

GFSNIL_sfc_dewp_033.txt.gz
Dewpoint
72 74 72 72 72 68 68 67 69 72 71 70 69 67 67 66 66 65 64 62 62 62
72 72 74 73 70 71 69 68 69 72 71 70 69 69 68 66 65 65 65 63 64 61
74 73 73 74 72 71 71 70 69 72 71 70 69 69 68 66 67 66 66 64 64 63
74 74 74 73 73 72 70 71 70 71 71 70 70 69 68 66 66 67 65 65 64 65
74 75 75 73 72 72 71 71 70 70 71 70 70 68 68 67 66 65 65 64 64 63
75 74 75 74 73 72 72 72 70 70 69 70 69 69 68 67 65 66 65 65 65 64
74 75 75 75 73 74 74 72 70 70 69 69 69 68 69 67 67 66 65 66 65 65
74 75 75 75 75 72 74 73 70 69 70 70 69 68 68 67 67 66 65 65 65 65
73 75 75 74 74 74 72 74 72 70 70 69 69 65 66 67 67 67 66 65 65 64
73 74 74 74 74 74 73 74 73 71 70 69 68 63 64 66 67 66 66 65 64 65
72 73 74 74 74 74 74 74 72 70 69 69 68 63 61 63 65 66 65 66 66 65
72 73 74 74 74 74 74 73 71 70 69 68 67 61 59 61 65 65 64 66 67 67
72 73 74 74 74 74 73 71 70 69 68 65 66 60 58 60 65 64 64 64 66 62
74 75 75 74 74 74 72 70 69 68 67 67 66 63 56 56 64 64 64 65 65 66

GFSNIL_sfc_dewp_036.txt.gz
Dewpoint
71 70 68 69 69 69 68 68 71 70 70 67 66 64 64 63 63 63 63 62 61 61
70 72 72 71 70 68 67 66 70 69 70 68 67 66 65 64 64 65 63 62 61 62
69 70 72 72 70 69 67 68 68 69 69 68 67 66 66 64 64 64 64 64 63 62
69 69 70 73 73 70 69 68 67 70 69 69 68 68 66 65 65 64 64 64 63 62
71 71 70 70 71 72 70 70 68 68 70 69 68 68 67 65 65 65 64 64 63 63
72 72 71 71 70 73 71 70 69 69 69 69 69 68 67 66 65 64 65 64 63 63
72 73 73 73 72 71 72 71 70 69 69 69 69 68 67 67 66 65 65 65 64 63
72 73 73 74 74 73 71 71 71 69 69 69 69 68 68 67 66 65 64 65 65 65
73 73 73 74 74 73 73 72 71 70 69 68 68 65 66 67 67 66 65 64 64 65
73 73 74 74 74 74 72 73 71 69 69 69 68 64 64 66 68 67 66 65 64 64
73 73 74 74 74 74 73 72 72 70 69 69 69 62 62 65 68 67 66 66 65 65
72 72 73 74 74 74 74 73 73 71 70 69 69 60 60 63 67 65 64 65 66 66
71 72 73 73 74 74 74 73 73 71 71 67 69 60 58 60 64 65 65 63 65 62
70 71 73 73 74 74 74 72 71 70 70 68 66 63 57 57 64 64 64 64 64 65

GFSNIL_sfc_dewp_042.txt.gz
Dewpoint
69 69 68 69 69 69 69 71 72 72 72 71 70 69 67 64 63 65 64 63 63 62
70 69 69 69 69 69 70 71 71 72 72 71 70 68 67 65 64 64 64 64 64 63
69 70 69 69 69 69 69 71 71 71 72 71 69 68 67 65 65 65 63 63 64 64
69 70 70 69 69 69 69 70 70 71 71 71 69 68 66 66 65 65 65 65 64 64
70 70 69 69 69 70 69 69 69 70 70 70 69 68 67 65 65 64 64 64 65 64
69 69 69 69 70 70 70 69 69 69 70 70 69 68 67 67 66 65 65 64 64 64
69 69 69 70 71 71 71 70 69 69 69 70 69 69 68 67 67 66 66 65 64 64
68 69 69 69 70 71 72 71 70 69 68 69 69 68 68 68 67 67 66 66 66 65
69 69 69 69 69 70 71 72 71 71 69 68 68 65 65 67 68 67 67 66 66 67
69 69 69 69 69 69 69 71 71 71 70 69 69 63 64 66 68 68 68 67 66 66
69 69 70 70 70 70 69 69 69 71 71 71 70 62 62 65 69 69 68 67 66 67
69 69 70 70 70 71 71 70 70 70 71 70 70 61 60 63 69 68 68 67 67 67
70 70 70 70 71 71 72 71 71 71 71 68 70 60 59 63 69 68 68 68 67 63
71 71 71 71 71 72 72 72 73 72 73 71 70 68 57 60 69 68 68 66 66 66

GFSNIL_sfc_dewp_045.txt.gz
Dewpoint
74 71 71 72 69 69 69 69 74 74 74 75 75 74 74 71 69 69 67 68 67 63
74 73 72 74 74 70 73 70 72 73 74 74 74 74 74 70 70 68 68 68 68 65
72 73 73 74 74 74 74 74 72 74 74 75 75 74 74 72 71 69 67 65 67 67
72 72 73 73 73 74 74 75 74 74 74 74 74 74 74 72 71 69 69 68 67 67
73 73 72 73 73 74 74 75 75 74 74 74 74 74 73 72 70 69 69 68 67 66
72 72 72 73 73 74 74 74 74 74 74 73 73 73 73 72 71 70 69 68 68 67
72 72 72 73 73 74 74 74 74 74 74 74 73 73 72 72 71 70 69 69 69 68
72 73 73 73 73 74 74 74 74 74 73 74 73 70 73 72 71 71 70 69 69 69
72 73 73 73 74 74 74 74 74 74 73 73 70 66 66 71 71 71 71 70 70 70
72 72 73 73 73 74 74 74 74 74 73 73 73 63 64 66 72 72 72 72 71 69
72 72 73 73 73 73 73 73 74 74 74 73 72 63 62 65 71 72 73 72 72 71
71 72 73 73 72 73 73 72 73 74 74 74 73 62 61 64 70 71 73 72 72 71
72 72 72 73 73 73 73 72 70 72 74 71 74 62 59 63 69 71 70 72 72 64
72 73 73 74 74 74 73 73 74 73 73 74 73 72 58 59 71 70 70 70 70 69

GFSNIL_sfc_dewp_048.txt.gz
Dewpoint
77 71 70 73 69 68 67 66 72 73 74 75 74 75 76 73 72 72 71 70 68 58
76 76 72 75 76 70 74 68 71 72 74 74 75 75 76 73 73 72 72 71 70 64
75 76 76 76 76 76 75 75 72 73 73 74 75 75 76 74 74 73 70 68 70 69
74 74 75 74 76 76 77 77 75 75 73 73 74 76 76 76 74 73 73 70 69 70
75 75 74 75 75 76 77 78 77 76 75 74 73 76 75 75 72 73 72 71 70 69
74 75 75 76 76 76 77 77 76 77 77 75 74 75 75 75 74 73 72 71 71 69
74 75 75 76 76 76 77 77 77 77 77 77 76 75 74 73 74 74 72 72 71 70
75 76 76 76 76 77 77 77 77 77 77 77 75 71 75 75 74 75 73 72 71 70
75 76 76 76 77 77 77 77 77 77 76 76 72 66 65 72 74 74 75 74 73 73
75 75 76 75 76 77 77 76 77 77 76 76 76 64 63 67 73 73 75 75 75 71
75 75 76 76 76 77 76 76 77 77 77 76 75 64 62 65 73 74 75 75 75 75
74 75 75 76 76 76 75 75 75 75 77 77 76 62 60 64 71 72 74 75 76 75
74 75 75 76 76 76 75 73 71 72 75 71 76 66 59 62 69 71 70 73 75 66
75 76 76 77 76 76 75 74 75 74 75 75 75 75 60 57 69 70 72 69 70 72